Methuen, Massachusetts, United States (01844)
Lat: 42.73N, Lon: 71.19W
Wx Zone: MAZ006
Local Info
Past Weather Observations for Monday, October 20, 2014

NOTE: This archive is for the closest National Weather Service station to Methuen. Information may differ from the station used for current weather conditions.

Click here for Long-term Archive

Time Weather Temperature Dewpoint Humidity Pressure Winds Precip Visibility
23:54
Partly Cloudy
46°F / 8°C 37°F / 3°C 71% 30.04 in
(1017 mb)
Calm - 10SM
22:54
Mostly Cloudy
48°F / 9°C 37°F / 3°C 66% 30.04 in
(1017 mb)
SSE 3.5 mph
(SSE 6 kph)
- 10SM
21:54
Clear
46°F / 8°C 37°F / 3°C 71% 30.04 in
(1017 mb)
SSE 4.6 mph
(SSE 7 kph)
- 10SM
20:54
Clear
48°F / 9°C 36°F / 2°C 62% 30.04 in
(1017 mb)
S 3.5 mph
(S 6 kph)
- 10SM
19:54
Partly Cloudy
50°F / 10°C 36°F / 2°C 58% 30.04 in
(1017 mb)
SW 5.8 mph
(SW 9 kph)
- 10SM
18:54
Partly Cloudy
52°F / 11°C 34°F / 1°C 50% 30.01 in
(1016 mb)
S 4.6 mph
(S 7 kph)
- 10SM
17:54
Overcast
54°F / 12°C 34°F / 1°C 47% 30.01 in
(1016 mb)
SSE 6.9 mph
(SSE 11 kph)
- 10SM
16:54
Partly Cloudy
54°F / 12°C 32°F / 0°C 44% 29.98 in
(1015 mb)
SSW 6.9 mph
(SSW 11 kph)
- 10SM
15:54
Clear
55°F / 13°C 32°F / 0°C 41% 29.98 in
(1015 mb)
SSW 12.7 mph
(SSW 20 kph)
- 10SM
14:54
Clear
55°F / 13°C 32°F / 0°C 41% 29.98 in
(1015 mb)
SSW 13.8 mph
(SSW 22 kph)
- 10SM
13:54
Clear
55°F / 13°C 32°F / 0°C 41% 29.98 in
(1015 mb)
SW 13.8 mph
(SW 22 kph)
- 10SM
12:54
Clear
54°F / 12°C 32°F / 0°C 44% 30.01 in
(1016 mb)
SSW 9.2 mph
(SSW 15 kph)
- 10SM
11:54
Clear
52°F / 11°C 30°F / -1°C 44% 30.04 in
(1017 mb)
W 10.4 mph
(W 17 kph)
- 10SM
10:54
Clear
48°F / 9°C 30°F / -1°C 50% 30.04 in
(1017 mb)
W 10.4 mph
(W 17 kph)
- 10SM
09:54
Clear
46°F / 8°C 28°F / -2°C 50% 30.06 in
(1018 mb)
SSW 11.5 mph
(SSW 19 kph)
- 10SM
08:54
Clear
45°F / 7°C 28°F / -2°C 53% 30.06 in
(1018 mb)
SSW 11.5 mph
(SSW 19 kph)
- 10SM
07:54
Clear
39°F / 4°C 28°F / -2°C 65% 30.06 in
(1018 mb)
SW 8.1 mph
(SW 13 kph)
- 10SM
06:54
Clear
36°F / 2°C 28°F / -2°C 75% 30.06 in
(1018 mb)
SW 6.9 mph
(SW 11 kph)
- 10SM
05:54
Clear
36°F / 2°C 27°F / -3°C 70% 30.04 in
(1017 mb)
S 3.5 mph
(S 6 kph)
- 10SM
04:54
Clear
37°F / 3°C 27°F / -3°C 65% 30.04 in
(1017 mb)
SSW 5.8 mph
(SSW 9 kph)
- 10SM
03:54
Clear
36°F / 2°C 27°F / -3°C 70% 30.01 in
(1016 mb)
SSW 5.8 mph
(SSW 9 kph)
- 10SM
02:54
Clear
37°F / 3°C 27°F / -3°C 65% 30.01 in
(1016 mb)
WNW 4.6 mph
(WNW 7 kph)
- 10SM
01:54
Clear
37°F / 3°C 25°F / -4°C 60% 30.01 in
(1016 mb)
W 6.9 mph
(W 11 kph)
- 10SM
00:54
Clear
39°F / 4°C 25°F / -4°C 56% 30.01 in
(1016 mb)
W 11.5 mph
(W 19 kph)
- 10SM
Time Weather Temperature Dewpoint Humidity Pressure Winds Precip Visibility


Weather for websites

WeatherForYou.com, LLC is not responsible for any damages or problems caused by this service. Current weather conditions are obtained from the closest station including government and personal stations which may have varying degrees of accuracy. Weather forecasts are derived from the NOAA NDFD. Like all things, this site belongs to Jesus Christ... He just trusts me to maintain it. If you have any questions or comments email webmaster@weatherforyou.com

Copyright © 2014, WeatherForYou.com LLC. All rights reserved.